Regional Weather Roundup
Issued by NWS

Home | Current Version | Previous Version | Text Only | Print | Product List | Glossary On
Versions: 1 2 3 4 5 6 7 8 9 10 11 12 13 14 15 16 17 18 19 20 21 22 23 24 25 26 27 28 29 30 31 32 33 34 35 36 37 38 39 40 41 42 43 44 45 46 47 48 49 50
000
ASUS44 KFWD 051903
RWRTX
NORTH TEXAS HOURLY WEATHER ROUNDUP
NATIONAL WEATHER SERVICE FORT WORTH TX
100 PM CST THU MAR 05 2015

NOTE: "FAIR" INDICATES FEW OR NO CLOUDS BELOW 12,000 FEET WITH NO
SIGNIFICANT WEATHER AND/OR OBSTRUCTIONS TO VISIBILITY.

TXZ118-119-052000-
DALLAS/FORT WORTH METROPLEX

CITY           SKY/WX    TMP DP  RH WIND       PRES   REMARKS
DFW AIRPORT    NOT AVBL
DALLAS LOVE    NOT AVBL
FTW MEACHAM    NOT AVBL
FTW-SPINKS     SUNNY     34  18  51 N12G18    30.62F WCI  25
MESQUITE       SUNNY     34  19  55 N9        30.61F WCI  26
$$

TXZ091>094-102>105-117-120-121-131>134-052000-
NORTH CENTRAL TEXAS

CITY           SKY/WX    TMP DP  RH WIND       PRES   REMARKS
$$

TXZ083>090-098>101-113>116-127>130-139>142-154-155-052000-
WESTERN NORTH TEXAS

CITY           SKY/WX    TMP DP  RH WIND       PRES   REMARKS
WICHITA FALLS  NOT AVBL
ABILENE        NOT AVBL
BRECKENRIDGE   SUNNY     37  17  45 N5        30.60F HAZE    WCI  33
STEPHENVILLE   SUNNY     34  19  54 NE9       30.60F WCI  26
$$

TXZ143>147-156>162-174-175-052000-
CENTRAL TEXAS

CITY           SKY/WX    TMP DP  RH WIND       PRES   REMARKS
WACO           SUNNY     37  22  54 N23G31    30.59F WCI  26
CAMERON        PTSUNNY   40  29  63 N18       30.56S WCI  31
KILLEEN        SUNNY     36  22  57 N16G23    30.56S WCI  26
FORT HOOD      SUNNY     37  24  59 N21       30.56F WCI  27
GATESVILLE     SUNNY     36  21  55 NE14G22   30.60F WCI  27
$$

TXZ095>097-106>112-122>126-135>138-148>153-164>167-052000-
EAST TEXAS

CITY           SKY/WX    TMP DP  RH WIND       PRES   REMARKS
TYLER          NOT AVBL
LONGVIEW       NOT AVBL
HENDERSON      SUNNY     39  22  50 N14G22    30.54F WCI  30
$$

SUPPLEMENTAL OBSERVATIONS (CENTRAL)

CITY           SKY/WX    TMP DP  RH WIND       PRES   REMARKS
$$

SUPPLEMENTAL OBSERVATIONS (WEST)

CITY           SKY/WX    TMP DP  RH WIND       PRES   REMARKS
$$

SUPPLEMENTAL OBSERVATIONS (EAST)

CITY           SKY/WX    TMP DP  RH WIND       PRES   REMARKS
$$

SUPPLEMENTAL OBSERVATIONS ARE A COLLECTION OF AUTOMATED INSTRUMENTS
THAT ARE MAINTAINED BY A VARIETY OF FEDERAL AND STATE AGENCIES.
CERTAIN ELEMENTS...SUCH AS HUMIDITY VALUES AND SUSTAINED WIND
SPEEDS...MAY BE APPROXIMATED.




USA.gov is the U.S. government's official web portal to all federal, state and local government web resources and services.